CW7615 Weather Reports


Display with metric or nautical units.
time (UTC)temp
F
wind
direction
speed
MPH
gust
MPH
rain 1hr
in
rain 24hr
in
rain mn
in
humidity
%
barometer
mb
20260905144543 87 146 2.0 7.0 0.00 0.00 0.00 58 1019.4
20260905144039 87 174 3.0 9.0 0.00 0.00 0.00 57 1019.4
20260905143536 88 132 3.0 9.0 0.00 0.00 0.00 59 1019.4
20260905143048 88 118 3.0 6.0 0.00 0.00 0.00 59 1019.5
20260905142534 87 130 2.0 7.0 0.00 0.00 0.00 59 1019.5
20260905142036 87 107 4.0 7.0 0.00 0.00 0.00 57 1019.7
20260905141535 88 117 3.0 9.0 0.00 0.00 0.00 56 1019.6
20260905141036 88 125 4.0 9.0 0.00 0.00 0.00 55 1019.5
20260905140534 88 172 4.0 10.0 0.00 0.00 0.00 55 1019.6
20260905140034 88 196 5.0 10.0 0.00 0.00 0.00 54 1019.6
20260905135533 89 173 5.0 10.0 0.00 0.00 0.00 54 1019.7
20260905135033 89 171 4.0 9.0 0.00 0.00 0.00 56 1019.8
20260905134531 88 181 4.0 7.0 0.00 0.00 0.00 57 1019.7
20260905134031 88 152 1.0 8.0 0.00 0.00 0.00 57 1019.8
20260905133533 88 105 3.0 9.0 0.00 0.00 0.00 57 1019.9
20260905133029 88 130 3.0 9.0 0.00 0.00 0.00 57 1020.1
20260905132528 87 201 4.0 9.0 0.00 0.00 0.00 57 1020.0
20260905132035 87 104 3.0 10.0 0.00 0.00 0.00 60 1020.1
20260905131541 86 171 3.0 11.0 0.00 0.00 0.00 59 1020.2
20260905131031 86 121 5.0 9.0 0.00 0.00 0.00 59 1020.1
20260905130527 86 130 4.0 10.0 0.00 0.00 0.00 59 1020.2
20260905130027 86 117 3.0 11.0 0.00 0.00 0.00 60 1020.3
20260905125529 85 165 6.0 11.0 0.00 0.00 0.00 60 1020.3
20260905125025 85 121 3.0 8.0 0.00 0.00 0.00 60 1020.3
20260905124534 85 137 3.0 8.0 0.00 0.00 0.00 60 1020.2
20260905124030 86 117 4.0 8.0 0.00 0.00 0.00 59 1020.4
20260905123528 86 166 3.0 11.0 0.00 0.00 0.00 61 1020.4
20260905123024 86 109 4.0 11.0 0.00 0.00 0.00 60 1020.4
20260905122528 86 165 6.0 11.0 0.00 0.00 0.00 58 1020.3
20260905122025 86 126 4.0 8.0 0.00 0.00 0.00 59 1020.3
20260905121523 86 112 4.0 10.0 0.00 0.00 0.00 58 1020.4
20260905121025 86 148 5.0 10.0 0.00 0.00 0.00 59 1020.4
20260905120522 86 176 2.0 11.0 0.00 0.00 0.00 60 1020.4
20260905120021 87 180 4.0 8.0 0.00 0.00 0.00 61 1020.4
20260905115520 86 166 3.0 9.0 0.00 0.00 0.00 62 1020.6
20260905115019 86 176 3.0 9.0 0.00 0.00 0.00 61 1020.7
20260905114532 86 180 5.0 9.0 0.00 0.00 0.00 62 1020.8
20260905114018 86 144 3.0 7.0 0.00 0.00 0.00 65 1020.8
20260905113521 86 118 1.0 8.0 0.00 0.00 0.00 66 1020.9
20260905113030 86 121 4.0 9.0 0.00 0.00 0.00 67 1021.0
20260905112516 86 140 3.0 9.0 0.00 0.00 0.00 67 1021.1
20260905112014 85 109 2.0 7.0 0.00 0.00 0.00 69 1021.2
20260905111514 85 113 3.0 7.0 0.00 0.00 0.00 71 1021.3
20260905111013 85 145 2.0 7.0 0.00 0.00 0.00 71 1021.2
20260905110512 84 147 1.0 7.0 0.00 0.00 0.00 71 1021.3
20260905110010 84 105 4.0 7.0 0.00 0.00 0.00 73 1021.3
20260905105510 84 115 2.0 6.0 0.00 0.00 0.00 74 1021.4
20260905105009 83 130 2.0 7.0 0.00 0.00 0.00 74 1021.4
20260905104518 83 117 4.0 7.0 0.00 0.00 0.00 73 1021.5
20260905104008 84 126 3.0 8.0 0.00 0.00 0.00 73 1021.4
20260905103507 84 105 4.0 8.0 0.00 0.00 0.00 73 1021.4
20260905103019 84 109 3.0 9.0 0.00 0.00 0.00 72 1021.4
20260905102507 84 126 6.0 9.0 0.00 0.00 0.00 72 1021.2
20260905102006 85 127 5.0 9.0 0.00 0.00 0.00 71 1021.2
20260905101504 85 163 2.0 6.0 0.00 0.00 0.00 72 1021.2
20260905101002 85 194 3.0 8.0 0.00 0.00 0.00 70 1021.1
20260905100501 85 109 1.0 8.0 0.00 0.00 0.00 68 1021.0
20260905100109 84 140 1.0 7.0 0.00 0.00 0.00 67 1020.9
20260905095558 84 138 2.0 7.0 0.00 0.00 0.00 72 1020.8
20260905095058 83 132 4.0 7.0 0.00 0.00 0.00 73 1020.7
20260905094556 82 182 2.0 5.0 0.00 0.00 0.00 74 1020.6
20260905094054 82 176 2.0 5.0 0.00 0.00 0.00 75 1020.5
20260905093553 82 178 0.0 5.0 0.00 0.00 0.00 75 1020.5
20260905093058 82 171 0.0 0.0 0.00 0.00 0.00 76 1020.3
20260905092550 81 132 0.0 0.0 0.00 0.00 0.00 78 1020.3
20260905092049 80 131 0.0 0.0 0.00 0.00 0.00 80 1020.3
20260905091559 79 181 0.0 0.0 0.00 0.00 0.00 81 1020.5
20260905091047 78 181 0.0 0.0 0.00 0.00 0.00 82 1020.5
20260905090546 78 184 0.0 0.0 0.00 0.00 0.00 82 1020.5
20260905090046 78 183 0.0 0.0 0.00 0.00 0.00 82 1020.6
20260905085546 77 183 0.0 0.0 0.00 0.00 0.00 83 1020.7
20260905085045 77 184 0.0 0.0 0.00 0.00 0.00 84 1020.5
20260905084550 77 184 0.0 0.0 0.00 0.00 0.00 85 1020.5
20260905084042 76 184 0.0 0.0 0.00 0.00 0.00 84 1020.6
20260905083542 76 182 0.0 0.0 0.00 0.00 0.00 85 1020.6
20260905083041 76 183 0.0 0.0 0.00 0.00 0.00 85 1020.6
20260905082541 76 198 0.0 0.0 0.00 0.00 0.00 86 1020.5
20260905082041 76 198 0.0 0.0 0.00 0.00 0.00 85 1020.4
20260905081539 76 200 0.0 0.0 0.00 0.00 0.00 85 1020.4
20260905081039 76 216 0.0 3.0 0.00 0.00 0.00 85 1020.4
20260905080539 76 216 0.0 3.0 0.00 0.00 0.00 84 1020.4
20260905080045 75 218 1.0 3.0 0.00 0.00 0.00 84 1020.3
20260905075540 75 291 0.0 1.0 0.00 0.00 0.00 84 1020.2
20260905075037 75 291 0.0 1.0 0.00 0.00 0.00 84 1020.2
20260905074537 75 291 0.0 1.0 0.00 0.00 0.00 84 1020.4
20260905074036 74 292 0.0 0.0 0.00 0.00 0.00 84 1020.4
20260905073535 74 292 0.0 2.0 0.00 0.00 0.00 84 1020.3
20260905073037 74 292 0.0 2.0 0.00 0.00 0.00 84 1020.4
20260905072535 74 291 0.0 4.0 0.00 0.00 0.00 84 1020.5
20260905072032 74 252 1.0 3.0 0.00 0.00 0.00 84 1020.5
20260905071533 74 270 0.0 0.0 0.00 0.00 0.00 86 1020.4
20260905071033 73 10 0.0 0.0 0.00 0.00 0.00 86 1020.3
20260905070530 73 10 0.0 0.0 0.00 0.00 0.00 86 1020.3
20260905070035 73 10 0.0 0.0 0.00 0.00 0.00 86 1020.3
20260905065528 73 10 0.0 0.0 0.00 0.00 0.00 86 1020.4
20260905065029 73 10 0.0 0.0 0.00 0.00 0.00 86 1020.1
20260905064533 73 10 0.0 0.0 0.00 0.00 0.00 86 1020.1
20260905064030 72 10 0.0 0.0 0.00 0.00 0.00 85 1020.1
20260905063525 72 10 0.0 0.0 0.00 0.00 0.00 84 1020.0
20260905063026 72 10 0.0 0.0 0.00 0.00 0.00 85 1019.9
20260905062525 72 10 0.0 0.0 0.00 0.00 0.00 86 1019.8
20260905062024 72 10 0.0 0.0 0.00 0.00 0.00 87 1020.5
20260905061523 72 10 0.0 0.0 0.00 0.00 0.00 87 1019.9
20260905061023 72 11 0.0 0.0 0.00 0.00 0.00 87 1019.8
20260905060520 72 11 0.0 0.0 0.00 0.00 0.00 87 1019.9
20260905060031 72 11 0.0 1.0 0.00 0.00 0.00 87 1019.9
20260905055518 72 11 0.0 2.0 0.00 0.00 0.00 88 1019.8
20260905055017 73 11 0.0 1.0 0.00 0.00 0.00 87 1019.8
20260905054516 73 11 0.0 0.0 0.00 0.00 0.00 88 1019.7
20260905054016 73 11 0.0 0.0 0.00 0.00 0.00 88 1019.8
20260905053516 73 11 0.0 1.0 0.00 0.00 0.00 88 1019.7
20260905053027 73 11 0.0 1.0 0.00 0.00 0.00 88 1019.7
20260905052519 73 11 0.0 0.0 0.00 0.00 0.00 87 1019.6
20260905052015 73 11 0.0 2.0 0.00 0.00 0.00 87 1019.6
20260905051515 73 11 0.0 3.0 0.00 0.00 0.00 87 1019.7
20260905051017 73 11 1.0 3.0 0.00 0.00 0.00 87 1019.7
20260905050518 73 11 1.0 4.0 0.00 0.00 0.00 87 1019.7
20260905050015 73 11 2.0 4.0 0.00 0.00 0.00 86 1019.7
20260905045514 73 5 1.0 3.0 0.00 0.00 0.00 86 1019.7
20260905045043 73 5 0.0 4.0 0.00 0.00 0.00 85 1019.7
20260905044512 73 5 1.0 4.0 0.00 0.00 0.00 86 1019.6
20260905044012 73 216 0.0 3.0 0.00 0.00 0.00 86 1019.5
20260905043512 72 216 1.0 3.0 0.00 0.00 0.00 84 1019.4
20260905043012 72 216 1.0 4.0 0.00 0.00 0.00 83 1019.3
20260905042511 73 216 2.0 3.0 0.00 0.00 0.00 83 1019.1
20260905042011 73 216 0.0 0.0 0.00 0.00 0.00 82 1018.9
20260905041511 73 216 0.0 0.0 0.00 0.00 0.00 81 1018.8
20260905041010 73 216 0.0 1.0 0.00 0.00 0.00 80 1018.8
20260905040510 73 216 0.0 1.0 0.00 0.00 0.00 80 1018.6
20260905040017 73 216 0.0 2.0 0.00 0.00 0.00 79 1018.7
20260905035510 74 216 0.0 2.0 0.00 0.00 0.00 77 1018.7
20260905035009 74 216 0.0 1.0 0.00 0.00 0.00 80 1018.7
20260905034509 74 216 0.0 3.0 0.00 0.00 0.00 81 1018.7
20260905034008 74 216 1.0 3.0 0.00 0.00 0.00 80 1018.6
20260905033508 74 277 0.0 2.0 0.00 0.00 0.00 78 1018.5
20260905033008 74 330 0.0 3.0 0.00 0.00 0.00 76 1018.5
20260905032508 74 330 0.0 4.0 0.00 0.00 0.00 72 1018.3
20260905032007 74 309 0.0 4.0 0.00 0.00 0.00 71 1018.4
20260905031507 74 24 0.0 2.0 0.00 0.00 0.00 74 1018.4
20260905031006 74 45 0.0 0.0 0.00 0.00 0.00 76 1018.5
20260905030506 74 45 0.0 1.0 0.00 0.00 0.00 77 1018.5
20260905030007 74 336 0.0 2.0 0.00 0.00 0.00 74 1018.5
20260905025505 73 336 0.0 2.0 0.00 0.00 0.00 71 1018.5
20260905025005 73 336 0.0 2.0 0.00 0.00 0.00 71 1018.5
20260905024508 73 337 0.0 2.0 0.00 0.00 0.00 71 1018.4
20260905024004 73 336 0.0 1.0 0.00 0.00 0.00 72 1018.4
20260905023504 73 336 0.0 2.0 0.00 0.00 0.00 74 1018.4
20260905023004 73 336 1.0 3.0 0.00 0.00 0.00 76 1018.4
20260905022502 73 350 0.0 2.0 0.00 0.00 0.00 80 1018.4
20260905022003 73 350 1.0 4.0 0.00 0.00 0.00 78 1018.5
20260905021500 73 350 2.0 5.0 0.00 0.00 0.00 77 1018.6
20260905021000 73 346 3.0 5.0 0.00 0.00 0.00 79 1018.7
20260905020603 73 348 2.0 4.0 0.00 0.00 0.00 82 1018.8
20260905020107 73 333 1.0 4.0 0.00 0.00 0.00 84 1018.9
20260905015559 73 360 1.0 4.0 0.00 0.00 0.00 85 1018.9
20260905015101 73 5 1.0 4.0 0.00 0.00 0.00 85 1019.1
20260905014558 73 5 0.0 4.0 0.00 0.00 0.00 85 1019.0
20260905014058 73 9 2.0 4.0 0.00 0.00 0.00 85 1019.0
20260905013556 74 24 1.0 4.0 0.00 0.00 0.00 86 1019.2
20260905013057 74 78 0.0 0.0 0.00 0.00 0.00 86 1019.3
20260905012556 74 78 0.0 0.0 0.00 0.00 0.00 86 1019.2
20260905012054 75 78 0.0 0.0 0.00 0.00 0.00 86 1019.2
20260905011554 75 78 0.0 0.0 0.00 0.00 0.00 85 1019.2
20260905011054 75 78 0.0 0.0 0.00 0.00 0.00 85 1019.2
20260905010553 75 78 0.0 0.0 0.00 0.00 0.00 84 1019.2
20260905010058 75 78 0.0 0.0 0.00 0.00 0.00 83 1019.3
20260905005550 75 78 0.0 0.0 0.00 0.00 0.00 81 1019.2
20260905005049 76 78 0.0 0.0 0.00 0.00 0.00 81 1019.3
20260905004607 76 78 0.0 0.0 0.00 0.00 0.00 79 1019.2
20260905004047 76 78 0.0 0.0 0.00 0.00 0.00 77 1019.2
20260905003546 77 78 0.0 0.0 0.00 0.00 0.00 76 1019.1
20260905003046 77 78 0.0 0.0 0.00 0.00 0.00 75 1019.0
20260905002546 77 78 0.0 1.0 0.00 0.00 0.00 74 1018.9
20260905002046 77 78 0.0 3.0 0.00 0.00 0.00 72 1018.9
20260905001545 77 78 1.0 5.0 0.00 0.00 0.00 71 1018.8
20260905001046 77 346 3.0 8.0 0.00 0.00 0.00 70 1018.7
20260905000545 77 355 4.0 8.0 0.00 0.00 0.00 71 1018.8
20260905000513 77 360 5.0 8.0 0.00 0.00 0.00 72 1018.8
20260905000043 77 355 2.0 4.0 0.00 0.00 0.00 73 1018.9
20260904235542 77 313 0.0 2.0 0.00 0.00 0.00 74 1018.9
20260904235041 77 311 0.0 2.0 0.00 0.00 0.00 74 1019.0
20260904234540 77 311 0.0 2.0 0.00 0.00 0.00 73 1019.0
20260904234043 77 324 0.0 3.0 0.00 0.00 0.00 73 1019.2
20260904233539 77 17 0.0 5.0 0.00 0.00 0.00 73 1019.3
20260904233049 77 5 2.0 8.0 0.00 0.00 0.00 73 1019.3
20260904232539 77 351 4.0 9.0 0.00 0.00 0.00 73 1019.5
20260904232038 77 360 5.0 9.0 0.00 0.00 0.00 73 1019.5
20260904231538 78 350 3.0 8.0 0.00 0.00 0.00 73 1019.7
20260904231038 78 339 4.0 6.0 0.00 0.00 0.00 73 1019.7
20260904230539 78 345 3.0 5.0 0.00 0.00 0.00 73 1019.7
20260904230037 78 355 3.0 6.0 0.00 0.00 0.00 73 1019.7
20260904225536 78 341 3.0 6.0 0.00 0.00 0.00 73 1019.5
20260904225034 77 355 2.0 5.0 0.00 0.00 0.00 73 1019.5
20260904224534 77 331 1.0 4.0 0.00 0.00 0.00 75 1019.4
20260904224034 77 346 0.0 2.0 0.00 0.00 0.00 75 1019.4
20260904223534 77 346 0.0 2.0 0.00 0.00 0.00 76 1019.4
20260904223033 77 346 0.0 1.0 0.00 0.00 0.00 75 1019.4
20260904222534 77 346 0.0 2.0 0.00 0.00 0.00 76 1019.4
20260904222032 77 346 0.0 4.0 0.00 0.00 0.00 76 1019.3
20260904221532 77 348 2.0 5.0 0.00 0.00 0.00 77 1019.5
20260904221031 77 326 2.0 5.0 0.00 0.00 0.00 78 1019.4
20260904220632 77 338 1.0 4.0 0.00 0.00 0.00 78 1019.5
20260904220031 77 349 1.0 3.0 0.00 0.00 0.00 79 1019.6
20260904215531 77 344 1.0 3.0 0.00 0.00 0.00 78 1019.6
20260904215031 77 355 0.0 1.0 0.00 0.00 0.00 79 1019.8
20260904214529 78 355 0.0 1.0 0.00 0.00 0.00 79 1019.8
20260904214029 78 355 0.0 2.0 0.00 0.00 0.00 79 1019.8
20260904213531 78 355 0.0 2.0 0.00 0.00 0.00 80 1019.8
20260904213030 78 355 0.0 0.0 0.00 0.00 0.00 80 1019.9
20260904212529 79 355 0.0 2.0 0.00 0.00 0.00 79 1019.9
20260904212028 79 355 0.0 3.0 0.00 0.00 0.00 78 1019.9
20260904211528 79 346 1.0 3.0 0.00 0.00 0.00 78 1019.9
20260904211029 79 346 1.0 4.0 0.00 0.00 0.00 78 1019.9
20260904210528 79 315 2.0 4.0 0.00 0.00 0.00 77 1020.0
20260904210030 79 345 0.0 2.0 0.00 0.00 0.00 77 1019.9
20260904205530 79 345 0.0 3.0 0.00 0.00 0.00 78 1019.9
20260904205027 79 345 0.0 3.0 0.00 0.00 0.00 78 1020.0
20260904204527 80 343 0.0 1.0 0.00 0.00 0.00 78 1019.8
20260904204028 80 344 0.0 1.0 0.00 0.00 0.00 78 1019.9
20260904203527 80 343 0.0 1.0 0.00 0.00 0.00 78 1019.8
20260904203027 80 343 0.0 2.0 0.00 0.00 0.00 78 1019.7
20260904202527 80 344 0.0 2.0 0.00 0.00 0.00 78 1019.7
20260904202026 80 343 0.0 3.0 0.00 0.00 0.00 78 1019.5
20260904201526 80 342 1.0 3.0 0.00 0.00 0.00 78 1019.3
20260904201026 80 332 0.0 3.0 0.00 0.00 0.00 78 1019.4
20260904200528 80 333 1.0 3.0 0.00 0.00 0.00 78 1019.3
20260904200026 80 355 2.0 4.0 0.00 0.00 0.00 78 1019.1
20260904195529 80 355 1.0 4.0 0.00 0.00 0.00 78 1019.1
20260904195025 80 5 1.0 3.0 0.00 0.00 0.00 79 1019.2
20260904194526 80 9 1.0 3.0 0.00 0.00 0.00 79 1019.1
20260904194025 80 10 1.0 3.0 0.00 0.00 0.00 79 1019.1
20260904193525 80 11 0.0 3.0 0.00 0.00 0.00 79 1019.0
20260904193127 80 65 1.0 3.0 0.00 0.00 0.00 79 1018.9
20260904192524 80 150 0.0 0.0 0.00 0.00 0.00 80 1018.8
20260904192023 80 150 0.0 0.0 0.00 0.00 0.00 80 1018.8
20260904191524 80 150 0.0 1.0 0.00 0.00 0.00 80 1018.8
20260904191024 80 142 0.0 1.0 0.00 0.00 0.00 80 1018.7
20260904190524 80 142 0.0 1.0 0.00 0.00 0.00 80 1018.7
20260904190027 80 146 0.0 0.0 0.00 0.00 0.00 80 1018.6
20260904185523 80 146 0.0 0.0 0.00 0.00 0.00 80 1018.6
20260904185022 80 146 0.0 0.0 0.00 0.00 0.00 80 1018.6
20260904184522 80 146 0.0 0.0 0.00 0.00 0.00 79 1018.5
20260904184023 80 146 0.0 0.0 0.00 0.00 0.00 79 1018.5
20260904183524 80 146 0.0 0.0 0.00 0.00 0.00 78 1018.6
20260904183026 80 146 0.0 1.0 0.00 0.00 0.00 78 1018.6
20260904182526 81 146 0.0 1.0 0.00 0.00 0.00 78 1018.5
20260904182022 81 146 0.0 0.0 0.00 0.00 0.00 78 1018.5
20260904181522 81 146 0.0 1.0 0.00 0.00 0.00 78 1018.4
20260904181025 81 146 0.0 1.0 0.00 0.00 0.00 77 1018.4
20260904180525 81 146 0.0 1.0 0.00 0.00 0.00 77 1018.3
20260904180022 81 146 0.0 2.0 0.00 0.00 0.00 78 1018.4
20260904175525 81 146 1.0 3.0 0.00 0.00 0.00 77 1018.3
20260904175021 81 145 1.0 3.0 0.00 0.00 0.00 77 1018.1
20260904174521 81 145 1.0 3.0 0.00 0.00 0.00 77 1018.2
20260904174021 81 144 1.0 3.0 0.00 0.00 0.00 77 1018.2
20260904173520 82 130 1.0 3.0 0.00 0.00 0.00 77 1018.1
20260904173020 82 130 1.0 3.0 0.00 0.00 0.00 76 1018.2
20260904172519 82 129 0.0 2.0 0.00 0.00 0.00 76 1018.2
20260904172019 82 128 0.0 2.0 0.00 0.00 0.00 76 1018.3
20260904171518 82 128 0.0 0.0 0.00 0.00 0.00 77 1018.3
20260904171018 81 128 0.0 0.0 0.00 0.00 0.00 78 1018.4
20260904170518 81 128 0.0 1.0 0.00 0.00 0.00 79 1018.5
20260904170019 80 128 0.0 3.0 0.00 0.00 0.00 79 1018.6
20260904165521 80 128 1.0 3.0 0.00 0.00 0.00 78 1018.6
20260904165017 81 128 1.0 4.0 0.00 0.00 0.00 78 1018.6
20260904164517 81 128 2.0 6.0 0.00 0.00 0.00 78 1018.6
20260904164017 81 128 3.0 6.0 0.00 0.00 0.00 77 1018.6
20260904163516 82 126 3.0 6.0 0.00 0.00 0.00 76 1018.6
20260904163016 82 128 3.0 5.0 0.00 0.00 0.00 76 1018.4
20260904162517 82 119 2.0 6.0 0.00 0.00 0.00 75 1018.5
20260904162016 83 123 2.0 6.0 0.00 0.00 0.00 75 1018.4
20260904161515 83 160 2.0 8.0 0.00 0.00 0.00 76 1018.5
20260904161018 82 138 2.0 8.0 0.00 0.00 0.00 76 1018.5
20260904160515 83 178 3.0 8.0 0.00 0.00 0.00 75 1018.5
20260904160015 83 114 4.0 9.0 0.00 0.00 0.00 75 1018.6
20260904155515 84 122 5.0 9.0 0.00 0.00 0.00 74 1018.6
20260904155013 84 128 4.0 9.0 0.00 0.00 0.00 73 1018.6
20260904154513 84 134 4.0 7.0 0.00 0.00 0.00 74 1018.6
20260904154013 84 123 2.0 4.0 0.00 0.00 0.00 74 1018.5
20260904153512 83 122 2.0 4.0 0.00 0.00 0.00 75 1018.6
20260904153018 82 119 2.0 3.0 0.00 0.00 0.00 77 1018.7
20260904152510 81 121 0.0 4.0 0.00 0.00 0.00 78 1018.8
20260904152010 81 120 2.0 4.0 0.00 0.00 0.00 78 1019.0
20260904151509 81 114 2.0 6.0 0.00 0.00 0.00 79 1019.0
20260904151009 81 126 3.0 7.0 0.00 0.00 0.00 78 1019.1
20260904150509 81 118 4.0 7.0 0.00 0.00 0.00 78 1019.3
20260904150017 82 129 2.0 6.0 0.00 0.00 0.00 77 1019.2
20260904145509 82 126 2.0 7.0 0.00 0.00 0.00 77 1019.2
20260904145008 82 132 3.0 9.0 0.00 0.00 0.00 76 1019.2